sat.trackr.live / text

‹ back to catalog

STARLINK-1655

NORAD 47623 · 2021-012D

PAYLOAD ACTIVE UNKNOWN

§ Identity

Operator
Country
US
Launch date
2021-02-16
Launch site
AFETR
Launch vehicle
Mass (kg)
RCS (m²)

Purposes: comms

External: N2YO · Heavens-Above · Gunter

§ Orbital elements

Epoch: 2026-05-25T00:00:02.000160Z

Period
90.96 min
Inclination
53.0324°
Eccentricity
0.0006175
Mean motion
15.83128328 rev/d
Perigee alt
317.5 km
Apogee alt
325.7 km
Semi-major
6,699.7 km
B*
7.3261e-4
RAAN
306.9372°
Arg perigee
232.2662°
Mean anomaly
70.2306°
Rev number
584

§ Raw data

STARLINK-16551 47623U 21012D   26145.00002315  .00163149  00000+0  73261-3 0  99922 47623  53.0324 306.9372 0006175 232.2662  70.2306 15.83128328  5849

JSON: /api/v1/satellites/47623 · /tle

For live sub-satellite position, see the globe view (requires WebGL).

§ Visibility from observer

Set your observer location to see the next 7 days of passes ≥ 10°. The values pass through the URL so the page stays shareable.

No JS? Fill the form by hand. The geolocation button needs JavaScript.